Location: Cronhütte
(48.9135°N, 9.6869°E)
Time: 01:52:18
(UTC+00:00)

SL-16 R/B - Pass Details

Date: 23 May 2024
Orbit: 842 x 845 km, 71.0° (Epoch: 19 June)

Event Time Altitude Azimuth Distance (km) Brightness Sun altitude
Rises 01:35:33 0° 328° (NNW) 3,416 5.7 -14.0°
Reaches altitude 10° 01:38:04 10° 323° (NW) 2,477 4.9 -13.8°
Maximum altitude 01:43:31 49° 250° (WSW) 1,085 2.4 -13.3°
Drops below altitude 10° 01:48:55 10° 177° (S) 2,460 4.2 -12.7°
Enters shadow 01:49:06 - 177° (S) 2,525 4.2 -12.7°
